sat.trackr.live / text

‹ back to catalog

STARLINK-35027

NORAD 65466 · 2025-195J

PAYLOAD ACTIVE UNKNOWN

§ Identity

Operator
Country
US
Launch date
2025-09-03
Launch site
AFETR
Launch vehicle
Mass (kg)
RCS (m²)

Purposes: comms

External: N2YO · Heavens-Above · Gunter

§ Orbital elements

Epoch: 2026-05-25T00:52:48.320832Z

Period
93.90 min
Inclination
53.1599°
Eccentricity
0.0001915
Mean motion
15.33597128 rev/d
Perigee alt
463.8 km
Apogee alt
466.4 km
Semi-major
6,843.2 km
B*
7.6660e-4
RAAN
263.4951°
Arg perigee
76.9505°
Mean anomaly
283.1711°
Rev number
4,168

§ Raw data

STARLINK-350271 65466U 25195J   26145.03667038  .00024961  00000+0  76660-3 0  99992 65466  53.1599 263.4951 0001915  76.9505 283.1711 15.33597128 41685

JSON: /api/v1/satellites/65466 · /tle

For live sub-satellite position, see the globe view (requires WebGL).

§ Visibility from observer

Set your observer location to see the next 7 days of passes ≥ 10°. The values pass through the URL so the page stays shareable.

No JS? Fill the form by hand. The geolocation button needs JavaScript.